MAROC-TUBSAT

Last updated on Sun Jun 21 2026 00:02:51 GMT+0000 (Coordinated Universal Time)

1 27004U 01056D 26171.37260714 -.00000034 00000+0 13845-4 0 9994 2 27004 99.8084 348.2921 0020418 133.3391 346.0489 13.70262541226623
UTC large
Height (km)
Speed (km/s)
/
Latitude / Longitude
Inclination (degrees)
Orbital Period (minutes)
Azimuth
Elevation
Range (km)
Doppler Factor

Next 0 passes for location: London (51.5072 / 0.1276)

No passes found over London.
MAROC-TUBSAT